TimeCST,TemperatureF,Dew PointF,Humidity,Sea Level PressureIn,VisibilityMPH,Wind Direction,Wind SpeedMPH,Gust SpeedMPH,PrecipitationIn,Events,Conditions,WindDirDegrees,DateUTC
12:15 AM,23.0,8.8,55,30.03,10.0,NE,11.5,-,N/A,,Overcast,40,2014-01-31 06:15:00
12:35 AM,22.6,8.2,54,30.02,10.0,NNE,11.5,-,N/A,,Overcast,30,2014-01-31 06:35:00
12:55 AM,22.1,8.1,55,30.03,10.0,NNE,11.5,-,N/A,,Mostly Cloudy,30,2014-01-31 06:55:00
1:15 AM,21.9,7.7,54,30.03,10.0,NE,10.4,-,N/A,,Mostly Cloudy,40,2014-01-31 07:15:00
1:35 AM,21.7,7.5,54,30.03,10.0,NE,10.4,-,N/A,,Overcast,40,2014-01-31 07:35:00
1:55 AM,21.6,7.3,54,30.03,10.0,NE,12.7,17.3,N/A,,Overcast,50,2014-01-31 07:55:00
2:15 AM,21.2,7.5,56,30.04,10.0,NNE,11.5,17.3,N/A,,Overcast,30,2014-01-31 08:15:00
2:35 AM,21.0,8.2,58,30.04,10.0,NE,13.8,19.6,N/A,,Overcast,40,2014-01-31 08:35:00
2:55 AM,21.0,8.6,59,30.05,10.0,NE,10.4,-,N/A,,Overcast,40,2014-01-31 08:55:00
3:15 AM,20.3,9.3,63,30.04,10.0,NE,12.7,-,N/A,,Overcast,40,2014-01-31 09:15:00
3:35 AM,19.9,10.2,66,30.04,10.0,NE,8.1,-,N/A,,Overcast,40,2014-01-31 09:35:00
3:55 AM,19.4,10.9,70,30.05,10.0,NE,9.2,-,N/A,,Overcast,50,2014-01-31 09:55:00
4:15 AM,18.5,11.7,75,30.05,7.0,NE,8.1,-,N/A,Snow,Light Snow,40,2014-01-31 10:15:00
4:35 AM,18.5,11.7,75,30.05,5.0,NE,12.7,-,N/A,Snow,Light Snow,40,2014-01-31 10:35:00
4:55 AM,18.0,12.6,79,30.05,3.0,NE,12.7,-,N/A,Snow,Light Snow,50,2014-01-31 10:55:00
5:15 AM,17.6,12.7,81,30.05,3.0,NE,8.1,-,N/A,Snow,Light Snow,50,2014-01-31 11:15:00
5:35 AM,16.9,11.5,79,30.05,5.0,NE,10.4,-,N/A,Snow,Light Snow,50,2014-01-31 11:35:00
5:55 AM,16.5,10.0,76,30.06,7.0,NE,11.5,-,N/A,Snow,Light Snow,50,2014-01-31 11:55:00
6:15 AM,16.5,11.1,79,30.07,10.0,NE,8.1,-,N/A,Snow,Light Snow,50,2014-01-31 12:15:00
6:35 AM,16.5,11.1,79,30.08,7.0,NE,9.2,-,N/A,Snow,Light Snow,50,2014-01-31 12:35:00
6:55 AM,16.5,11.1,79,30.08,5.0,NE,6.9,-,N/A,Snow,Light Snow,50,2014-01-31 12:55:00
7:15 AM,16.5,11.3,80,30.09,4.0,NE,8.1,-,N/A,Snow,Light Snow,50,2014-01-31 13:15:00
7:35 AM,16.0,10.0,77,30.09,5.0,ENE,8.1,16.1,N/A,Snow,Light Snow,60,2014-01-31 13:35:00
7:55 AM,15.6,9.5,77,30.10,10.0,NE,8.1,-,N/A,Snow,Light Snow,50,2014-01-31 13:55:00
8:15 AM,15.4,10.2,80,30.10,7.0,ENE,10.4,-,N/A,Snow,Light Snow,60,2014-01-31 14:15:00
8:35 AM,15.4,10.6,81,30.10,4.0,NE,9.2,-,N/A,Snow,Light Snow,40,2014-01-31 14:35:00
8:55 AM,15.6,10.8,81,30.11,4.0,NE,8.1,-,N/A,Snow,Light Snow,50,2014-01-31 14:55:00
9:15 AM,15.8,11.1,82,30.12,2.5,NE,8.1,-,N/A,Snow,Light Snow,50,2014-01-31 15:15:00
9:35 AM,15.6,10.0,79,30.12,2.5,NE,10.4,-,N/A,Snow,Light Snow,50,2014-01-31 15:35:00
9:55 AM,15.8,9.9,77,30.12,3.0,NE,10.4,-,N/A,Snow,Light Snow,50,2014-01-31 15:55:00
10:15 AM,16.3,9.9,76,30.13,3.0,ENE,11.5,-,N/A,Snow,Light Snow,60,2014-01-31 16:15:00
10:35 AM,17.2,10.9,76,30.13,3.0,NE,10.4,-,N/A,Snow,Light Snow,50,2014-01-31 16:35:00
10:55 AM,17.8,11.1,75,30.12,10.0,NE,10.4,-,N/A,,Overcast,50,2014-01-31 16:55:00
11:15 AM,17.6,10.6,74,30.13,10.0,NE,10.4,-,N/A,,Overcast,40,2014-01-31 17:15:00
11:35 AM,18.1,11.7,76,30.11,10.0,NE,10.4,-,N/A,,Overcast,50,2014-01-31 17:35:00
11:55 AM,18.1,11.3,75,30.10,10.0,NE,10.4,-,N/A,,Overcast,50,2014-01-31 17:55:00
12:15 PM,18.3,11.3,74,30.09,10.0,ENE,9.2,-,N/A,Snow,Light Snow,60,2014-01-31 18:15:00
12:35 PM,18.5,11.3,73,30.08,10.0,ENE,9.2,-,N/A,Snow,Light Snow,70,2014-01-31 18:35:00
12:55 PM,19.0,12.4,75,30.06,10.0,NE,9.2,-,N/A,,Overcast,50,2014-01-31 18:55:00
1:15 PM,19.6,12.4,74,30.04,10.0,NE,10.4,-,N/A,Snow,Light Snow,50,2014-01-31 19:15:00
1:35 PM,19.9,12.7,74,30.03,7.0,NE,9.2,-,N/A,Snow,Light Snow,50,2014-01-31 19:35:00
1:55 PM,20.1,13.3,75,30.01,7.0,NE,11.5,-,N/A,Snow,Light Snow,40,2014-01-31 19:55:00
2:15 PM,21.4,14.2,74,29.99,10.0,East,9.2,-,N/A,Snow,Light Snow,80,2014-01-31 20:15:00
2:35 PM,21.6,14.9,76,30.00,10.0,East,8.1,-,N/A,,Mostly Cloudy,80,2014-01-31 20:35:00
2:55 PM,21.9,14.9,74,30.00,10.0,ENE,6.9,-,N/A,,Overcast,70,2014-01-31 20:55:00
3:15 PM,22.5,15.4,74,30.00,10.0,ENE,5.8,-,N/A,,Overcast,60,2014-01-31 21:15:00
3:35 PM,22.6,15.8,75,29.99,10.0,NE,5.8,-,N/A,,Overcast,50,2014-01-31 21:35:00
3:55 PM,23.0,16.2,75,29.99,10.0,ENE,6.9,-,N/A,,Overcast,60,2014-01-31 21:55:00
4:15 PM,23.0,16.2,75,29.99,10.0,NE,5.8,-,N/A,,Overcast,50,2014-01-31 22:15:00
4:35 PM,23.0,16.5,76,29.99,10.0,East,6.9,-,N/A,,Overcast,80,2014-01-31 22:35:00
4:55 PM,23.0,16.7,77,29.96,10.0,East,6.9,-,N/A,,Overcast,80,2014-01-31 22:55:00
5:15 PM,22.6,16.5,77,29.96,10.0,ENE,8.1,-,N/A,,Overcast,70,2014-01-31 23:15:00
5:35 PM,22.5,16.5,78,29.96,10.0,ENE,6.9,-,N/A,,Overcast,70,2014-01-31 23:35:00
5:55 PM,22.5,16.7,79,29.95,10.0,ENE,6.9,-,N/A,,Overcast,70,2014-01-31 23:55:00
6:15 PM,22.3,16.7,79,29.95,10.0,ENE,8.1,-,N/A,,Overcast,70,2014-02-01 00:15:00
6:35 PM,22.1,16.7,80,29.96,10.0,ENE,5.8,-,N/A,,Overcast,60,2014-02-01 00:35:00
6:55 PM,22.1,17.1,81,29.97,10.0,ENE,6.9,-,N/A,,Overcast,60,2014-02-01 00:55:00
7:15 PM,22.1,17.2,82,29.95,10.0,ENE,5.8,-,N/A,,Overcast,60,2014-02-01 01:15:00
7:35 PM,22.1,17.6,83,29.96,10.0,ENE,4.6,-,N/A,,Overcast,70,2014-02-01 01:35:00
7:55 PM,22.5,17.4,81,29.97,10.0,East,8.1,-,N/A,,Overcast,80,2014-02-01 01:55:00
8:15 PM,22.5,17.4,81,29.96,10.0,ENE,5.8,-,N/A,,Overcast,70,2014-02-01 02:15:00
8:35 PM,22.1,17.6,83,29.95,10.0,East,6.9,-,N/A,,Overcast,80,2014-02-01 02:35:00
8:55 PM,22.1,17.6,83,29.95,10.0,ENE,4.6,-,N/A,,Overcast,70,2014-02-01 02:55:00
9:15 PM,21.9,17.4,83,29.93,10.0,ENE,6.9,-,N/A,,Overcast,70,2014-02-01 03:15:00
9:35 PM,21.9,17.6,83,29.93,10.0,NE,4.6,-,N/A,,Overcast,50,2014-02-01 03:35:00
9:55 PM,22.1,17.6,83,29.96,10.0,Calm,Calm,-,N/A,,Overcast,0,2014-02-01 03:55:00
10:15 PM,22.1,17.6,83,29.96,7.0,NE,4.6,-,N/A,Snow,Light Snow,50,2014-02-01 04:15:00
10:35 PM,21.6,18.3,87,29.95,1.5,NNE,5.8,-,N/A,Snow,Light Snow,30,2014-02-01 04:35:00
10:55 PM,21.2,18.5,89,29.94,2.5,NE,5.8,-,N/A,Snow,Light Snow,50,2014-02-01 04:55:00
11:15 PM,21.2,18.5,89,29.93,2.5,NNE,5.8,-,N/A,Snow,Light Snow,30,2014-02-01 05:15:00
11:35 PM,21.2,18.3,89,29.93,4.0,NNE,6.9,-,N/A,Snow,Light Snow,30,2014-02-01 05:35:00
11:55 PM,21.4,18.5,89,29.93,1.8,NNE,5.8,-,N/A,Snow,Light Snow,30,2014-02-01 05:55:00